Theta_e
316 318 322 321 318 318 323 326 328 329 328 328 328 327 327 327 325 325 326 324 322 320 319 318 319 323 324 323 323 323 324 323 323 323 323 324 324 324 323 323 324 324 325 325 322 324 322 316 314 316 316 313 314 316 315 320 321 320 326 327 326 330 328 327 323 319 321 322 320 318 319 320 318 315 315 319 328 331 332 341 338 334 333 330 330 329 333 336
317 317 320 322 320 317 319 323 326 328 328 328 328 328 327 327 327 325 325 325 326 325 323 323 322 323 324 324 324 323 323 323 323 323 323 323 323 323 323 322 324 324 325 325 322 320 321 319 315 315 315 315 315 316 318 319 318 323 328 324 327 334 330 325 322 318 318 319 318 318 320 319 319 317 316 320 328 329 331 339 338 342 341 333 332 331 334 334
317 318 318 321 322 318 317 321 324 327 329 328 328 328 327 326 327 326 325 325 326 326 326 325 324 324 323 324 323 323 323 322 324 324 322 322 322 322 322 322 323 323 325 325 324 321 321 319 313 313 315 314 316 318 322 319 317 325 323 320 331 334 328 323 319 317 316 317 317 318 318 317 318 317 315 321 326 324 327 338 339 346 348 338 333 331 333 334
316 317 317 319 322 320 317 319 322 326 328 328 328 327 327 326 326 326 326 325 325 325 325 325 325 324 323 323 323 323 322 323 325 324 322 322 322 322 322 322 322 323 325 323 323 322 320 316 311 314 315 313 317 318 321 322 317 319 317 320 330 325 321 321 316 315 316 315 316 317 317 316 316 315 315 321 324 322 323 330 337 347 347 336 332 331 332 333
315 316 317 317 320 321 318 317 319 325 328 328 328 327 327 326 325 325 326 325 325 325 325 325 325 324 324 323 323 323 322 324 325 322 321 322 322 323 322 322 322 323 325 322 320 318 316 313 312 316 316 314 317 316 318 322 317 317 318 319 324 320 316 318 316 314 315 316 316 317 318 317 315 314 317 321 322 321 320 323 331 340 338 332 333 332 332 332
315 315 316 316 318 321 320 317 318 322 327 328 327 327 327 327 326 325 326 326 325 326 326 325 325 325 324 324 323 322 322 325 325 320 321 321 321 322 322 322 322 323 324 322 319 316 313 312 314 317 318 318 319 316 316 317 314 321 324 318 320 318 315 317 316 314 315 316 318 317 317 316 316 315 316 319 319 319 319 320 330 334 331 331 332 331 333 333
315 315 316 315 315 318 320 319 318 319 324 328 328 327 326 327 326 326 326 326 326 326 326 325 326 325 325 324 323 323 322 324 322 319 320 322 322 322 322 322 322 323 323 320 317 316 315 314 314 314 317 319 319 318 315 313 313 320 322 318 319 316 315 318 316 317 316 317 317 315 315 316 318 317 314 315 318 319 314 313 324 330 329 331 331 332 333 332
314 314 315 315 314 315 318 320 319 318 320 325 328 327 326 327 326 326 326 327 326 326 327 326 326 325 325 324 323 325 325 323 321 320 320 322 323 322 322 322 323 323 322 320 317 316 315 315 314 313 314 315 316 318 315 313 315 318 319 318 318 316 318 318 315 317 315 315 316 313 315 316 315 313 313 316 317 316 313 316 327 330 329 331 332 333 332 331
313 314 313 314 315 314 315 319 320 318 317 322 328 327 326 327 326 326 326 326 326 327 326 326 326 325 325 323 324 327 326 323 322 321 321 323 323 322 322 322 323 323 321 320 317 314 313 314 315 314 314 314 316 319 315 314 315 316 318 316 315 316 318 316 314 316 315 315 314 315 316 314 313 311 315 318 316 317 319 328 335 331 332 333 332 333 330 330
311 313 314 313 314 315 314 316 320 319 317 319 325 328 327 326 327 326 326 326 326 326 326 326 325 324 324 323 324 327 325 322 323 322 322 323 323 323 322 323 324 323 321 319 315 313 314 315 314 313 314 314 316 317 317 320 316 313 316 315 312 315 317 315 314 315 316 314 313 316 316 314 314 312 316 317 317 321 326 335 334 331 334 333 332 332 330 330
310 311 313 313 313 315 314 315 318 320 319 318 322 327 326 326 326 326 326 326 326 326 326 325 324 324 324 323 325 326 323 322 323 322 323 323 324 324 323 323 324 323 321 318 315 312 313 313 311 313 315 314 315 314 315 319 316 312 314 314 313 315 315 314 314 315 315 313 314 316 314 315 314 313 317 314 316 323 331 337 332 332 334 331 333 332 329 330
311 310 312 313 313 314 315 315 317 320 320 318 319 325 326 325 326 326 326 326 327 326 326 325 324 324 324 323 325 324 321 323 324 323 324 323 324 324 324 324 325 324 321 318 315 313 313 312 312 317 318 314 316 316 313 313 312 314 313 312 315 314 314 315 314 315 314 313 315 315 314 315 315 315 316 313 317 327 333 337 333 332 333 331 332 331 330 330
310 311 311 312 313 313 315 315 316 319 321 318 317 322 326 325 325 326 325 326 327 326 326 325 324 323 324 325 324 322 320 322 323 323 324 324 324 325 325 325 325 324 322 317 315 313 312 312 312 316 315 313 317 315 312 311 311 317 314 312 315 314 315 315 313 314 314 314 315 313 315 319 317 315 314 313 322 330 333 337 333 331 332 331 331 331 331 329
309 310 311 312 313 313 314 315 315 318 321 318 315 320 326 325 325 325 325 325 326 326 326 325 324 324 325 325 323 323 322 321 323 324 324 325 325 326 325 325 323 322 320 316 314 313 311 312 311 312 312 312 315 312 313 314 314 319 316 312 315 316 319 318 313 315 314 313 314 312 314 318 317 316 313 313 321 329 331 334 330 330 331 331 332 331 331 329
309 309 311 311 313 313 314 315 315 317 320 317 316 321 324 325 325 324 325 325 325 326 325 324 324 324 325 325 322 321 321 322 324 324 323 326 326 325 325 325 324 321 319 317 316 313 311 312 311 312 313 311 311 312 314 316 315 316 314 315 316 314 321 322 315 315 315 313 312 312 314 316 315 317 314 310 315 324 326 329 327 328 329 329 331 330 331 330
310 310 310 311 313 313 313 315 314 316 320 317 317 321 323 325 325 324 325 325 325 325 323 323 323 324 326 325 321 320 321 322 324 324 325 325 325 325 325 325 324 321 318 316 315 313 311 311 311 313 314 311 312 314 314 315 314 314 313 319 320 315 318 319 314 314 316 314 312 312 315 317 315 313 312 309 313 319 322 324 325 325 325 326 329 329 329 329
311 311 311 311 313 313 313 315 314 314 319 318 316 320 323 325 325 325 325 324 326 325 323 324 322 323 325 320 319 321 321 321 322 325 326 326 325 325 325 324 322 319 314 312 314 314 311 312 312 313 313 312 313 313 315 315 315 315 312 316 320 316 315 315 314 314 314 314 313 313 314 316 315 313 313 311 311 314 317 319 320 322 321 322 324 326 327 328
311 312 312 311 312 313 313 314 315 314 318 319 316 319 324 325 325 325 325 325 325 324 323 323 321 325 326 318 318 321 320 319 321 324 325 325 325 325 325 322 318 316 312 310 312 313 312 312 313 314 314 314 312 311 317 317 315 315 313 313 316 314 313 315 315 314 313 313 313 314 314 314 314 314 313 311 310 313 315 313 313 316 317 317 319 321 323 325
310 311 312 312 312 313 314 314 315 315 317 320 316 317 323 324 325 325 325 325 324 324 325 324 322 326 327 320 317 319 319 319 321 321 321 322 324 323 321 319 317 316 314 313 313 313 313 312 313 315 315 314 312 311 315 317 314 316 316 314 316 315 313 315 317 314 312 313 314 314 314 314 313 314 314 311 309 312 313 311 311 312 312 312 313 315 317 320
309 311 312 312 312 313 314 314 315 316 318 320 318 319 324 326 327 327 325 325 324 324 326 324 322 321 322 320 316 317 319 319 319 317 318 321 322 319 315 314 316 316 315 316 314 313 313 313 314 315 315 314 313 311 312 314 312 313 315 313 315 315 313 315 317 314 312 313 314 313 313 314 313 313 314 311 309 311 313 313 312 311 310 310 311 312 313 315
309 310 312 312 313 313 314 314 315 317 318 320 319 322 326 327 329 328 325 326 324 321 322 322 321 317 316 317 315 316 318 317 315 312 316 320 320 319 315 314 317 317 314 314 314 312 313 315 314 314 315 316 314 311 310 311 311 311 313 313 314 314 314 314 315 314 313 313 315 315 313 313 312 312 312 310 309 312 313 313 313 311 310 310 310 311 311 311
310 311 312 312 313 313 314 314 315 317 319 320 319 322 325 324 325 325 324 328 323 316 318 321 319 315 312 313 315 317 318 317 315 311 314 319 320 321 317 315 318 317 313 313 313 312 313 315 314 313 316 317 314 311 310 311 311 311 312 314 315 314 313 314 314 314 312 312 317 317 313 314 313 311 312 311 311 313 312 312 312 312 312 311 310 310 309 310
312 312 312 313 313 313 314 314 315 317 319 319 318 320 323 321 321 322 325 327 322 316 317 321 319 314 312 313 315 317 319 319 317 312 313 318 320 318 315 316 319 316 313 312 313 314 315 315 314 313 314 315 313 311 310 310 311 311 312 314 315 315 313 313 313 313 312 313 316 316 314 315 313 311 312 311 310 311 312 311 311 312 313 313 312 310 310 310
314 313 313 313 313 313 314 315 316 318 319 319 318 319 322 321 320 322 324 323 321 317 318 320 318 316 314 313 315 318 318 318 317 313 311 316 317 314 316 318 318 317 313 311 312 315 315 313 313 313 312 314 313 311 311 310 310 311 312 313 316 317 315 313 313 313 313 313 313 314 315 316 316 314 314 313 311 310 310 311 312 312 313 312 312 312 311 311
315 313 314 313 313 313 314 316 317 319 319 318 318 319 321 320 320 321 322 322 321 317 317 319 319 317 314 313 315 316 316 316 316 313 310 312 313 313 315 315 316 318 314 311 313 314 314 312 313 313 312 313 313 312 311 311 310 312 313 313 315 317 316 315 315 313 313 315 315 313 315 323 326 321 316 315 314 312 310 310 311 311 311 311 311 311 311 311
315 314 314 314 313 313 314 317 318 319 320 318 318 319 320 320 319 319 322 324 321 317 318 321 320 318 314 313 313 314 317 317 314 312 310 311 311 312 314 312 314 318 314 310 312 314 314 312 311 313 313 313 314 312 312 312 310 311 315 314 314 315 316 318 317 315 316 318 315 311 315 324 324 320 319 318 318 318 314 312 312 310 309 310 310 310 310 310
316 315 314 314 313 314 315 317 317 319 319 318 318 319 320 320 318 318 321 324 322 318 318 319 319 318 314 312 312 316 320 317 313 312 310 310 310 311 314 312 312 313 310 311 313 313 313 311 311 313 313 313 312 310 312 312 310 314 319 318 317 315 318 321 318 317 320 317 315 315 317 317 315 315 318 317 317 320 317 315 315 312 309 309 310 310 310 310
317 316 314 314 313 314 315 316 317 318 319 318 318 318 319 318 317 317 320 324 322 317 317 318 316 315 313 312 314 317 317 314 315 314 310 310 310 310 312 312 312 311 308 311 315 313 311 312 312 313 313 312 310 310 314 312 311 318 322 320 319 318 321 322 317 317 319 315 317 319 315 314 319 322 321 316 314 317 319 317 318 316 312 311 310 309 309 310
317 316 314 314 314 314 315 316 317 318 318 317 317 317 317 316 318 319 321 323 319 315 317 317 314 314 313 314 315 315 313 313 316 314 310 310 310 309 311 310 310 311 309 311 316 313 310 312 312 310 311 311 309 312 316 312 311 317 320 320 321 322 322 318 318 319 316 313 318 321 315 313 322 328 323 315 312 316 318 316 316 315 314 313 312 311 310 309
317 315 314 314 315 316 316 316 317 317 317 317 317 316 315 317 321 322 323 322 317 314 315 314 315 315 313 313 313 312 313 314 314 312 311 311 311 311 310 309 310 310 310 311 315 315 312 311 311 310 312 312 310 314 316 313 314 316 318 321 319 324 324 322 326 324 314 314 319 321 317 312 318 326 320 314 316 318 316 313 313 312 315 317 317 317 313 310
317 315 314 315 316 317 316 316 317 317 316 317 317 316 317 319 321 323 323 320 317 315 314 314 315 314 313 314 313 312 313 314 312 312 312 311 313 312 309 309 311 311 312 312 313 314 312 312 311 312 316 315 311 314 316 316 316 317 322 322 317 324 325 323 328 323 314 317 318 318 317 312 315 321 319 316 318 317 312 311 313 314 319 321 324 328 323 316
316 314 315 315 315 316 316 316 317 317 315 315 316 317 320 321 320 323 321 318 318 315 314 316 315 314 314 314 313 312 314 314 313 312 312 312 313 311 309 310 310 311 312 311 313 314 314 316 315 312 314 315 313 313 315 317 316 317 322 319 315 320 319 318 323 319 317 317 313 313 315 313 314 316 317 316 313 312 310 310 313 317 320 320 324 334 332 323
315 315 315 315 315 316 315 315 316 317 315 315 316 319 321 321 321 323 319 317 318 315 314 316 315 314 315 314 313 313 314 314 313 313 312 312 313 310 311 312 310 312 314 312 313 315 316 319 317 313 313 315 314 312 314 317 316 315 317 316 317 321 316 316 319 316 318 318 312 311 314 316 316 315 317 316 311 311 311 309 311 314 316 316 322 330 330 326
315 315 315 315 315 315 315 315 316 316 315 315 318 320 322 322 321 319 317 316 316 314 314 315 315 315 315 314 314 312 314 315 313 314 313 313 314 311 311 312 310 315 318 314 314 314 315 317 315 314 314 314 313 311 316 321 317 315 317 317 321 324 319 318 319 320 323 321 314 311 314 321 320 317 318 316 312 313 312 312 312 311 311 313 318 326 329 326
315 315 315 315 315 315 315 316 316 315 315 317 319 320 322 323 320 317 317 315 314 313 315 315 314 315 315 315 313 312 315 316 314 315 314 313 313 312 311 311 310 314 316 313 313 313 313 315 314 313 313 313 313 314 318 319 315 316 320 318 318 322 324 322 319 324 328 322 317 313 316 324 321 314 314 312 312 314 313 314 314 313 314 313 318 326 329 327
316 316 316 315 316 315 314 315 315 315 316 318 320 321 322 321 318 317 316 314 313 314 315 315 315 315 315 314 313 313 314 315 314 314 314 313 313 312 312 311 310 312 312 312 314 314 312 313 314 313 313 314 315 317 318 317 315 315 315 318 317 317 324 323 314 316 319 316 318 315 316 323 318 313 316 314 313 315 314 315 316 316 317 316 319 325 328 329
316 316 315 315 315 313 312 314 315 315 316 318 320 321 321 319 317 316 316 313 313 314 315 316 316 315 315 314 314 314 314 315 314 314 314 313 314 313 311 312 311 310 311 312 314 315 314 314 314 315 315 312 311 315 318 317 316 315 315 318 317 314 320 323 315 316 316 315 322 319 315 320 317 317 326 320 313 315 315 316 316 315 316 316 319 323 325 327
316 315 315 315 314 313 312 313 314 315 317 318 319 320 320 318 315 315 315 313 314 315 316 317 316 315 315 314 314 314 314 315 314 314 314 313 315 314 311 311 311 310 311 312 313 316 317 316 314 313 314 312 311 314 317 315 313 315 317 317 316 316 318 317 315 317 315 314 324 323 315 317 317 319 325 318 313 317 315 314 315 316 316 317 319 320 321 322
315 315 315 314 313 312 312 313 314 315 317 318 318 318 318 315 314 314 313 313 314 315 316 316 316 315 315 314 314 313 314 314 313 314 314 313 316 315 311 311 312 310 311 313 315 315 316 319 317 312 312 313 314 315 316 316 313 313 314 312 313 318 320 318 316 317 316 315 322 321 315 318 319 317 319 316 314 317 314 314 317 317 317 317 318 319 319 319
315 315 315 313 312 313 312 312 314 316 316 317 317 317 316 312 312 314 313 313 314 314 315 316 316 316 315 314 314 313 314 314 312 313 314 313 313 313 311 311 313 311 312 316 319 315 314 319 319 314 311 314 317 317 315 315 315 314 314 312 312 313 317 319 316 317 321 321 322 319 314 320 322 315 314 315 313 314 315 317 320 318 316 315 314 317 318 319
316 316 314 312 313 313 312 313 315 315 314 315 315 315 315 312 312 313 313 313 314 314 315 315 315 315 315 314 314 313 314 313 313 313 313 313 312 313 312 311 312 311 311 315 317 316 314 316 319 317 315 315 316 315 313 315 315 315 315 314 314 316 318 317 314 316 319 319 321 319 312 318 323 314 311 314 312 311 312 315 322 324 321 318 313 313 318 321
316 315 313 312 312 313 313 314 316 314 313 314 315 313 313 312 311 313 313 313 314 315 314 314 314 314 314 314 314 314 313 313 313 312 313 312 312 313 312 311 312 311 311 313 314 316 318 320 321 319 317 317 316 311 308 311 314 315 315 313 313 315 316 315 315 318 316 313 316 317 312 318 326 316 311 311 311 315 315 313 317 322 324 322 316 313 315 317
316 314 312 312 312 313 314 314 314 314 313 314 314 313 312 311 311 312 313 313 314 315 314 314 314 313 313 314 314 314 313 313 313 312 313 312 311 314 314 311 311 311 312 314 314 315 318 320 322 320 317 319 320 314 309 311 314 315 316 315 313 314 319 325 327 323 318 314 315 313 311 319 329 321 314 314 315 316 316 314 314 317 321 323 321 317 315 315
314 313 312 312 312 313 314 313 313 314 314 314 313 313 312 311 311 312 314 313 313 314 314 314 313 313 313 313 313 314 313 313 314 313 314 313 311 315 316 311 311 312 311 313 313 314 318 318 319 320 318 319 321 318 314 313 314 316 317 315 315 317 319 321 320 316 315 318 318 314 312 318 325 320 314 316 315 314 315 316 315 317 322 326 321 317 316 318
312 313 313 312 312 313 314 313 313 314 314 313 313 313 312 310 311 313 313 313 313 313 314 314 314 313 313 313 314 314 313 315 315 313 314 314 312 313 314 312 312 311 312 316 315 315 322 321 316 317 318 316 317 317 316 315 314 315 317 314 313 316 315 315 318 314 314 320 318 313 314 319 321 317 313 315 315 314 317 318 313 311 316 321 319 317 318 320
314 315 314 313 313 314 314 313 313 314 314 313 313 313 312 310 311 313 313 314 315 314 314 314 314 313 312 313 314 314 314 316 317 315 314 314 315 315 313 313 313 312 317 321 317 317 324 321 314 315 315 313 315 317 318 319 316 315 317 316 314 316 316 319 323 317 314 318 317 312 314 316 316 314 314 316 317 318 318 315 311 310 312 316 318 317 317 318
314 314 314 314 314 314 313 311 311 313 314 314 314 313 311 311 311 312 312 314 316 315 314 313 313 313 313 313 314 314 314 315 316 315 313 315 318 315 312 312 313 317 322 319 314 319 324 318 314 316 314 313 320 323 320 318 317 315 317 318 317 316 316 317 318 314 314 317 315 314 316 315 314 317 318 316 316 318 317 313 312 312 313 318 320 318 318 318
313 314 314 314 314 314 314 312 310 311 312 314 314 313 311 311 311 311 313 314 315 314 313 313 313 313 313 313 314 314 314 315 315 314 314 316 318 314 312 312 312 317 320 315 312 316 318 315 315 316 314 313 320 325 321 317 316 315 315 315 316 315 315 315 314 313 314 314 313 315 317 315 316 319 319 316 313 312 312 312 311 312 317 321 320 320 322 321
311 313 313 313 312 312 313 312 311 310 312 314 315 313 312 311 311 311 313 313 313 312 313 313 313 313 313 313 314 314 313 314 315 314 313 316 316 314 314 313 312 315 316 313 314 316 314 315 317 315 313 312 316 320 320 317 317 317 316 315 314 314 314 313 313 313 313 313 317 318 316 317 320 321 319 316 313 311 310 310 310 313 322 326 324 328 328 324
312 313 311 312 312 311 313 313 312 312 312 313 313 313 311 311 311 312 313 313 312 312 313 313 312 312 312 313 313 314 313 313 315 314 313 314 315 313 314 314 314 313 312 311 313 313 313 316 316 314 313 313 314 316 315 315 316 317 316 315 314 314 314 313 313 313 313 313 315 315 315 317 319 320 318 313 311 311 311 313 312 313 323 331 332 334 332 326
308 309 309 312 312 312 313 313 312 312 312 312 313 313 312 311 311 312 313 314 313 312 312 313 313 312 312 312 313 313 313 313 314 313 312 313 314 313 314 315 314 312 312 313 313 312 314 314 311 313 315 312 312 314 313 312 313 314 315 315 314 313 313 312 312 313 312 312 312 313 313 314 316 319 318 312 310 312 313 317 315 314 321 333 336 336 334 328
305 309 311 314 313 312 313 313 312 313 312 312 312 313 312 312 312 312 313 315 315 313 313 313 312 312 312 312 313 313 313 313 313 314 313 312 313 315 316 315 313 312 313 314 315 316 317 315 312 315 316 312 310 312 314 314 313 313 314 313 312 313 313 312 313 313 312 312 312 312 312 315 317 318 316 313 314 316 317 320 319 316 322 329 330 330 331 326
Wind_Speed
25 25 25 28 33 33 30 33 38 41 41 40 38 36 36 38 39 37 37 37 37 35 36 36 33 31 27 26 25 22 19 14 12 11 9 10 12 12 10 9 7 8 8 5 4 5 4 7 8 5 8 7 2 3 1 2 2 1 2 3 1 3 4 4 6 5 4 4 6 6 7 9 5 3 2 2 5 3 2 4 3 4 4 2 4 7 27 29
24 26 25 26 31 35 32 31 36 41 42 41 39 37 36 38 39 38 37 36 36 34 33 34 34 32 27 25 22 20 18 13 9 10 15 16 14 14 13 12 10 9 9 6 6 7 7 5 5 2 2 3 2 4 1 1 1 1 2 2 3 5 4 4 6 5 4 3 4 6 6 8 8 7 4 3 2 1 3 2 5 3 5 3 4 18 28 28
24 25 26 26 28 33 34 31 34 41 43 42 40 38 37 38 39 39 38 37 36 34 32 32 32 30 27 23 20 19 15 7 4 9 19 20 17 18 17 16 12 10 11 9 8 7 7 7 4 2 2 2 2 3 3 1 1 1 2 1 5 5 4 4 5 5 5 3 4 6 5 5 5 6 4 5 5 4 6 4 1 3 3 2 8 19 25 25
24 25 26 27 28 31 34 33 33 38 44 43 42 40 38 39 39 39 39 37 36 35 32 31 31 29 27 24 21 18 10 1 3 12 24 23 19 19 18 19 15 11 12 9 8 8 8 8 5 4 4 0 2 2 2 2 1 1 3 3 5 3 3 4 5 5 6 4 5 4 4 4 4 3 3 7 7 4 7 8 8 9 9 7 9 16 22 23
26 26 26 27 28 29 33 34 32 35 42 44 43 42 39 39 40 39 39 38 37 35 33 32 31 29 28 25 21 17 9 2 5 14 26 27 23 21 19 20 19 15 14 12 10 11 11 7 5 4 3 1 1 2 2 3 2 0 3 5 5 3 3 5 4 3 4 4 4 5 6 5 3 2 5 11 9 7 7 8 9 9 12 14 14 16 19 20
26 27 27 28 29 29 32 34 33 34 40 44 44 44 41 40 40 40 39 38 38 35 34 33 32 31 29 26 22 19 11 3 5 5 14 26 29 26 23 20 20 19 16 16 14 14 10 5 4 3 2 2 0 1 3 3 2 2 4 3 4 3 4 4 1 2 1 5 6 7 4 4 6 2 4 10 10 6 4 7 8 8 13 18 19 18 16 16
26 27 27 28 29 30 31 33 34 33 35 42 46 44 43 41 40 40 39 39 38 36 35 34 34 32 28 25 20 14 9 6 4 6 3 19 31 27 24 22 21 22 20 19 17 12 7 5 4 4 4 2 2 3 3 5 0 3 2 4 4 3 6 4 3 4 1 7 6 3 2 4 8 4 2 7 10 5 5 3 9 9 12 16 15 15 16 18
26 28 29 29 30 32 31 33 35 34 32 37 45 45 44 42 41 40 40 39 37 36 34 34 35 32 29 26 15 7 6 10 12 1 5 12 26 24 24 23 23 24 23 24 21 13 8 7 6 4 4 3 3 4 1 4 1 2 2 5 4 2 5 5 3 4 1 5 3 4 3 3 5 3 2 8 11 5 3 3 9 10 11 12 12 13 14 16
28 28 30 31 31 32 32 32 34 35 34 35 41 46 45 43 42 40 40 39 37 36 34 34 34 32 32 24 10 5 9 20 23 12 3 12 21 24 24 23 25 25 22 24 24 20 12 7 7 5 4 3 3 5 2 0 2 2 2 6 6 6 6 5 2 3 4 1 4 5 2 1 1 1 3 9 9 3 3 6 8 10 10 10 11 13 13 13
32 30 31 33 33 33 33 33 34 36 36 36 39 45 46 44 42 41 40 39 37 36 34 34 33 33 30 18 7 6 11 22 27 19 10 11 19 25 26 25 27 26 20 18 21 21 13 7 8 5 4 3 3 4 3 3 4 2 3 7 8 8 6 3 2 2 2 1 3 6 4 2 3 1 4 7 4 6 7 6 7 10 11 12 10 11 14 15
34 33 32 33 34 34 34 34 35 36 37 38 38 44 47 44 43 42 40 40 39 38 36 34 35 34 27 15 8 8 9 16 22 23 16 11 19 25 27 30 28 26 21 13 17 19 13 13 13 5 2 3 3 2 3 4 3 2 3 6 9 6 6 4 2 3 1 1 3 6 3 3 4 1 6 5 2 7 8 7 7 9 9 10 11 10 12 15
34 35 34 34 35 36 35 35 35 37 38 38 38 42 48 47 44 43 41 41 39 38 38 36 36 33 22 11 10 11 9 10 14 20 22 17 20 23 25 31 30 27 23 14 14 15 13 19 15 5 1 5 4 1 3 3 3 3 4 3 8 6 6 6 2 2 1 1 2 5 1 4 3 7 8 2 3 6 7 8 7 8 8 7 9 8 9 13
36 37 37 36 37 37 37 36 36 37 39 39 38 38 46 49 45 43 42 41 40 39 39 37 36 32 18 5 11 17 11 8 11 14 21 23 21 22 24 28 28 28 27 21 19 14 13 18 12 4 3 5 3 2 2 2 3 3 4 1 4 5 5 5 1 1 2 2 2 4 2 5 8 13 7 0 5 8 6 7 7 7 7 6 7 7 8 11
38 39 40 38 38 39 39 38 36 38 39 40 39 39 44 49 47 45 44 42 40 39 37 37 37 28 14 3 6 19 14 7 14 17 20 23 21 20 23 25 22 22 24 22 21 16 14 14 7 4 2 2 2 2 2 2 2 3 2 2 1 2 5 5 1 4 3 1 3 5 3 6 9 11 6 3 6 8 8 8 8 8 7 7 7 8 8 10
39 41 42 41 40 40 40 39 37 38 40 40 40 38 41 48 49 46 45 45 41 39 38 37 36 21 5 4 4 15 17 9 16 23 22 25 25 19 20 23 17 14 16 15 17 16 14 9 4 3 2 1 2 3 1 2 2 2 3 2 1 4 4 7 2 7 5 1 3 6 4 7 9 9 6 4 5 8 9 8 7 8 8 8 7 8 8 8
40 42 44 44 43 42 42 41 39 40 41 41 40 37 40 49 53 50 47 46 41 41 39 30 30 19 3 4 6 10 14 11 17 23 23 26 28 23 22 21 13 12 12 9 13 14 9 4 1 2 1 1 2 4 3 1 1 1 2 3 2 4 3 4 2 4 4 1 0 3 3 5 5 4 4 2 6 7 8 8 8 8 9 8 7 8 8 7
41 43 46 46 45 44 44 43 42 42 41 41 41 37 37 44 51 51 48 46 43 44 38 27 26 16 1 4 7 9 12 13 19 24 25 25 26 29 26 15 9 12 12 8 11 10 5 2 1 1 2 2 3 5 5 5 6 2 1 2 3 3 3 2 3 3 3 3 3 4 4 7 7 4 4 2 5 7 8 10 8 8 8 7 7 7 7 8
43 43 46 48 47 46 45 45 44 44 43 42 42 37 36 42 49 48 46 45 40 37 28 21 23 10 5 11 9 10 17 19 23 25 24 21 23 30 27 14 10 13 10 6 5 5 2 1 1 1 2 3 3 5 7 6 7 5 3 3 3 3 4 4 3 3 6 4 5 6 5 11 12 10 6 2 4 7 9 9 6 7 8 7 7 7 8 9
48 45 46 49 49 48 47 47 46 45 45 42 41 38 36 39 41 39 43 42 26 17 13 13 19 8 6 16 11 10 20 24 23 21 21 19 21 24 19 14 12 11 9 3 2 4 3 1 2 4 5 6 6 8 8 5 8 9 6 5 4 4 4 5 4 4 6 6 5 8 7 11 13 12 9 3 3 6 7 7 6 7 7 6 6 7 9 10
53 50 49 50 51 51 49 49 48 47 45 41 41 32 23 22 18 16 24 27 15 9 10 17 21 7 4 13 14 14 20 21 14 14 21 23 24 19 9 8 8 4 7 7 5 4 4 5 6 6 7 9 9 7 4 3 5 6 4 5 6 6 5 5 3 4 2 5 6 8 8 12 12 11 9 2 0 4 6 7 9 8 7 7 8 9 11 11
59 56 53 53 54 53 52 51 49 49 46 44 40 20 11 15 10 9 15 16 16 8 7 21 21 5 4 13 22 23 15 9 6 9 21 24 24 18 5 6 9 4 5 7 4 3 4 8 7 5 6 8 8 6 3 4 4 2 3 4 5 6 5 5 3 4 2 3 4 3 5 12 13 11 9 2 2 7 8 9 10 10 8 7 8 11 12 10
65 61 58 57 56 55 54 53 51 51 47 44 37 16 12 17 13 22 23 13 16 5 2 21 16 3 3 13 29 32 16 7 8 9 19 22 16 11 5 7 10 7 5 5 4 4 5 8 8 7 6 7 6 6 6 6 6 5 3 3 4 4 3 4 3 3 2 2 3 1 3 10 13 11 8 5 7 8 9 10 10 9 9 8 10 12 11 9
68 66 63 60 59 59 56 54 53 51 46 40 33 22 16 12 15 35 22 6 11 1 1 18 10 4 7 10 24 31 18 12 13 12 20 22 12 9 10 9 11 9 7 8 7 8 7 8 10 9 7 9 8 6 8 6 6 6 4 4 4 2 2 2 3 2 2 1 1 1 1 7 9 8 8 8 9 9 10 9 8 8 9 11 11 10 10 11
70 71 66 64 64 61 57 56 52 48 47 41 37 38 27 13 27 40 15 4 6 3 3 18 9 5 9 12 20 22 12 9 11 13 20 18 9 8 11 10 11 9 9 11 11 10 7 4 8 9 7 10 9 7 9 7 6 7 6 6 4 2 4 4 2 0 1 2 2 2 3 6 7 6 8 7 3 7 8 7 8 8 10 11 9 8 10 12
71 74 69 70 65 62 61 52 45 45 44 38 39 44 34 21 31 34 12 3 4 4 3 14 7 5 12 19 22 15 8 5 7 15 19 17 14 10 7 6 8 10 11 11 9 8 6 3 8 10 7 9 10 10 11 9 6 6 6 7 6 5 5 3 1 2 0 3 1 1 2 5 5 5 9 6 3 7 6 5 10 11 10 10 9 10 12 11
70 73 72 72 66 68 55 32 37 47 35 28 38 42 34 29 33 25 8 2 4 2 6 10 7 9 13 14 14 13 10 5 8 19 24 23 20 11 7 5 3 9 12 9 4 4 5 4 7 10 8 8 9 10 11 10 7 5 6 8 8 7 5 4 4 3 2 4 2 1 4 6 6 5 8 4 5 9 7 5 10 11 9 9 10 12 11 10
66 71 74 73 69 67 38 17 38 42 21 23 39 42 39 39 33 15 3 2 5 6 8 8 6 14 14 8 12 14 9 7 8 14 19 23 20 11 11 9 3 5 7 5 3 3 6 6 5 9 9 7 8 8 8 9 8 5 5 9 10 7 7 7 7 5 4 2 2 1 3 4 5 6 6 3 4 10 10 9 10 10 10 10 11 12 12 11
63 68 73 73 71 70 44 31 38 27 20 33 40 42 46 50 35 10 1 6 4 5 7 5 5 14 12 6 11 7 4 12 13 9 13 17 14 7 10 13 9 9 8 9 8 3 7 12 11 12 10 9 10 7 7 10 7 6 4 8 8 7 7 7 7 4 1 1 3 3 3 3 6 6 4 3 3 9 10 10 11 10 11 10 11 12 11 11
62 65 70 72 70 71 59 44 35 31 40 46 43 46 50 50 30 6 3 5 3 4 5 7 8 12 10 8 8 1 1 10 8 6 11 10 5 3 6 10 10 12 10 11 10 3 5 11 12 13 10 9 8 5 8 11 7 4 5 7 5 4 4 4 6 4 1 3 7 6 5 4 5 6 4 2 3 7 9 9 9 9 8 8 9 11 10 9
62 64 70 72 63 62 53 37 37 47 49 47 50 51 42 31 16 8 8 5 4 3 4 7 9 12 16 15 9 5 6 5 5 9 8 5 2 4 3 5 7 9 9 8 8 4 2 1 5 7 6 6 7 3 4 8 6 5 6 6 6 4 4 3 2 3 2 6 7 6 5 3 5 6 4 4 5 7 8 9 9 8 7 7 8 9 9 8
63 66 72 69 59 57 39 20 35 49 46 50 54 45 27 11 6 9 10 3 4 5 7 10 12 15 20 19 12 10 7 4 9 15 10 5 3 3 5 5 4 6 6 7 6 2 4 3 2 2 1 5 7 3 1 1 6 7 5 4 4 2 2 3 3 2 4 7 5 3 2 3 5 6 4 6 7 7 8 9 10 8 7 7 7 7 7 7
64 68 74 68 60 57 38 24 42 50 49 54 45 26 14 8 6 7 6 5 5 7 10 14 16 17 19 18 14 12 8 5 11 17 15 12 8 7 10 8 7 7 7 8 5 1 2 1 2 2 1 4 8 5 1 3 4 6 4 6 5 0 0 2 2 2 5 5 2 2 1 3 7 6 7 11 11 10 9 8 9 8 7 8 7 6 5 5
66 69 72 66 58 54 45 41 51 55 56 52 29 12 11 10 8 5 7 6 5 8 11 15 20 22 22 19 14 12 8 7 13 15 14 13 9 8 7 7 11 9 6 8 7 5 4 5 3 2 3 3 9 9 4 2 4 6 5 6 6 3 3 6 4 1 4 4 2 2 1 3 5 4 11 15 14 13 10 8 9 9 8 9 7 6 6 5
69 70 66 60 56 51 47 45 51 61 59 39 17 11 14 11 5 8 9 5 6 12 13 16 21 22 20 16 13 13 8 5 13 15 13 12 9 9 7 7 13 7 4 7 6 7 9 5 5 6 2 3 9 9 6 7 5 5 4 5 5 5 5 6 3 3 4 3 2 2 2 4 3 3 9 12 11 10 7 7 8 8 9 8 7 6 6 6
69 68 59 53 49 47 46 46 55 64 49 23 13 12 14 10 5 9 9 6 9 13 12 15 19 18 14 9 10 12 6 4 12 11 10 12 10 12 10 10 16 9 7 8 4 5 10 7 3 1 1 5 7 4 4 9 5 4 3 5 5 5 5 3 3 5 5 1 2 3 3 4 4 6 9 7 7 8 7 7 6 7 8 6 6 7 6 6
64 57 48 42 40 43 46 51 61 60 35 16 14 12 10 8 6 8 9 9 14 16 16 15 13 15 11 5 8 10 3 5 12 9 7 10 9 12 11 8 12 12 9 9 3 4 9 4 3 2 2 4 5 4 2 4 4 2 3 5 6 3 7 4 2 0 3 2 4 2 3 5 3 7 10 5 5 8 7 6 6 8 7 5 7 8 6 6
50 38 30 29 37 45 46 54 62 50 25 14 14 11 7 6 7 11 13 15 18 20 21 16 11 14 13 8 11 13 8 7 9 8 7 9 8 12 14 8 12 17 14 8 2 3 6 2 3 1 3 1 3 5 2 1 4 5 4 7 3 2 3 4 2 1 1 4 5 0 4 4 2 4 7 7 7 10 9 7 6 7 5 5 8 7 7 7
34 24 16 21 41 48 48 58 54 33 15 12 15 11 7 6 9 14 17 19 19 18 18 13 11 15 15 13 13 15 15 11 10 9 9 8 6 11 18 12 12 18 14 8 4 2 5 3 4 1 3 1 1 5 2 2 2 5 5 5 4 3 3 1 3 3 3 4 4 3 3 4 5 5 5 6 8 10 10 7 5 7 6 7 8 8 8 6
23 14 7 21 46 50 54 58 38 17 12 12 13 10 6 7 10 14 17 20 19 16 14 12 10 12 15 17 17 18 18 15 14 12 9 10 6 9 19 12 6 14 12 8 6 3 4 4 2 2 0 1 3 2 7 5 1 2 1 3 2 3 5 3 3 4 4 5 4 3 4 4 6 6 6 10 11 9 9 7 7 9 9 8 8 7 7 6
14 7 4 26 50 52 56 46 19 10 11 9 11 9 8 9 10 15 19 21 18 12 12 14 13 13 15 17 16 16 14 13 16 12 7 11 7 5 16 14 7 11 9 5 5 3 3 3 3 1 2 1 2 3 8 8 5 3 2 5 3 0 2 2 1 3 4 4 3 2 5 6 5 6 10 14 14 11 9 7 7 8 8 8 8 7 6 6
11 5 4 32 54 53 44 24 8 8 7 7 11 9 10 10 10 17 21 20 16 6 6 15 17 15 17 17 16 14 11 10 13 10 5 10 10 5 11 15 12 12 10 6 5 5 3 3 5 3 1 3 3 3 3 4 5 6 5 7 6 2 3 2 4 2 2 3 4 3 6 8 5 6 10 14 13 10 7 7 7 7 7 8 8 7 7 5
11 4 8 37 56 49 29 8 5 8 5 7 9 7 8 9 11 19 20 18 14 3 3 11 14 13 12 15 17 16 14 11 13 13 7 10 14 8 7 12 14 14 12 7 4 3 3 4 5 2 3 5 3 2 2 2 2 3 3 5 6 5 5 6 8 4 1 1 2 3 5 8 5 5 8 10 8 4 2 5 6 7 6 7 7 6 4 1
9 4 14 43 57 42 18 7 8 9 6 5 6 7 7 7 13 19 18 17 12 4 5 8 10 11 9 10 13 14 13 11 13 13 6 6 9 6 8 15 17 15 11 6 5 4 3 5 4 1 2 3 5 4 2 2 2 2 5 4 6 6 5 5 6 4 4 4 3 1 6 8 4 3 4 7 6 5 3 5 6 7 6 5 5 3 0 2
7 4 9 35 53 37 12 7 11 10 7 5 5 7 5 5 13 18 18 18 11 7 10 10 11 13 11 11 14 16 14 9 10 9 3 4 5 4 11 19 19 16 11 8 9 6 3 4 5 4 2 3 4 4 2 2 3 4 4 3 5 4 5 4 2 3 3 6 7 5 8 6 4 5 2 3 5 6 7 5 6 7 5 4 3 3 3 4
8 4 3 17 31 25 7 6 12 12 11 10 8 9 6 6 10 15 19 17 10 11 11 9 13 14 13 14 13 14 12 6 7 7 3 4 3 1 11 20 20 16 9 8 10 6 3 4 5 7 7 7 8 6 5 5 3 1 1 3 4 5 7 5 3 3 5 5 7 8 8 5 5 6 3 3 4 5 7 5 5 5 3 2 2 3 4 4
8 4 5 7 10 13 4 3 10 12 13 14 9 8 10 10 8 11 17 12 5 9 8 7 13 12 12 17 14 12 12 4 5 6 4 6 3 1 8 18 18 14 10 13 14 8 3 3 5 8 11 12 10 6 4 8 6 5 4 6 6 6 7 6 4 5 7 2 4 11 10 6 5 4 4 7 5 6 7 4 3 4 3 1 2 3 3 4
6 4 11 8 6 10 6 4 8 8 11 15 10 9 13 14 10 10 12 7 4 8 6 5 13 13 14 19 14 13 15 7 6 10 9 6 3 4 2 9 13 14 13 13 12 7 4 3 8 11 14 11 5 4 6 9 12 14 12 11 11 11 10 8 9 15 9 5 8 12 10 9 8 6 8 9 6 6 6 4 4 5 3 1 3 3 3 4
3 3 10 9 6 9 8 9 12 9 10 13 9 10 16 16 15 13 9 5 6 10 7 5 14 18 20 23 16 13 16 9 7 11 9 6 5 5 3 2 5 11 13 9 8 6 5 7 8 9 11 6 2 4 8 9 8 10 13 16 15 13 14 14 20 23 13 9 11 6 10 10 9 7 9 8 5 5 5 4 4 2 3 3 4 5 5 5
3 3 3 4 5 10 13 15 16 14 14 11 6 10 16 18 18 15 10 8 9 12 11 12 17 20 22 22 17 15 17 15 12 13 13 12 10 9 8 4 3 6 10 9 6 3 5 7 7 9 10 5 1 5 9 9 6 6 11 16 13 13 17 20 26 25 16 14 9 5 4 6 6 7 10 7 5 4 2 2 2 5 5 5 6 6 6 7
5 6 5 5 4 9 14 16 17 16 13 10 8 9 13 18 20 15 10 12 15 15 14 19 24 24 26 25 20 19 23 24 21 19 18 18 15 12 11 8 6 5 6 8 6 2 4 6 6 8 7 3 2 3 4 6 8 8 10 13 13 15 19 23 25 19 12 14 8 3 5 7 5 7 7 4 3 2 2 3 3 5 6 7 6 6 8 9
1 2 6 9 7 8 12 13 15 16 13 11 11 11 14 19 20 15 7 7 14 18 18 24 26 21 21 24 23 23 26 27 25 23 22 21 17 13 8 6 9 10 7 7 6 3 3 3 4 6 7 5 2 4 3 3 4 3 8 13 18 20 21 22 18 13 13 15 10 6 9 6 5 7 6 2 3 4 6 6 5 6 6 7 7 8 9 10
2 3 4 7 9 10 12 12 13 14 13 12 10 10 13 17 18 16 8 1 6 12 13 19 23 16 15 22 24 21 20 19 16 14 14 14 11 8 7 7 12 14 10 6 3 3 6 5 3 6 8 4 1 5 6 7 4 4 10 17 22 21 19 15 10 11 15 12 9 11 12 6 6 7 7 4 3 6 8 7 6 6 6 7 8 9 10 10
Wind_Direction
236 239 236 230 229 228 226 226 217 207 208 208 209 211 207 205 203 202 202 203 206 206 206 208 213 217 213 213 215 217 223 228 225 214 211 219 205 183 176 185 197 217 227 233 213 203 188 40 50 189 285 334 20 322 345 12 2 21 87 126 205 190 197 185 178 192 182 219 213 206 178 158 181 193 186 61 53 62 71 3 327 335 353 230 290 150 155 157
237 237 237 234 231 229 227 230 224 211 207 207 207 211 209 206 205 204 204 204 204 205 205 204 207 213 212 210 209 209 209 212 219 219 220 226 216 203 213 209 198 212 221 217 175 153 143 78 42 180 293 353 340 327 5 45 88 113 124 153 225 201 211 200 183 197 198 230 208 198 187 174 183 171 156 152 181 169 129 332 338 349 350 11 134 146 152 156
240 238 238 236 233 230 227 231 230 216 207 208 207 209 210 207 205 205 206 205 204 204 203 202 204 206 209 204 196 193 189 201 242 236 227 224 227 225 225 217 200 205 218 218 198 183 156 124 71 80 82 17 305 339 6 355 166 172 146 198 245 213 242 240 199 219 225 216 180 199 191 187 195 158 152 162 173 206 188 202 196 208 235 134 146 152 154 157
241 241 239 237 235 230 227 230 234 220 207 206 208 208 210 207 205 204 205 206 205 205 204 203 203 202 203 194 189 187 170 317 265 236 234 223 221 222 217 213 200 201 210 197 179 176 158 132 89 70 97 176 296 5 345 287 193 186 160 200 242 203 267 250 197 237 246 206 181 182 150 181 211 152 150 142 145 238 234 212 195 189 183 163 163 161 160 162
240 241 239 239 237 232 228 229 235 226 209 205 207 207 209 208 206 204 204 205 205 204 203 202 201 199 197 191 191 180 143 352 230 228 239 224 214 212 209 212 204 202 200 183 160 142 140 127 96 69 78 168 319 45 235 262 122 181 243 227 238 193 262 256 191 234 247 185 152 153 166 177 168 140 164 158 171 224 223 210 204 184 167 165 168 166 167 170
242 242 240 239 240 236 230 228 234 231 214 206 206 207 208 208 206 204 203 202 203 203 201 200 198 196 194 191 187 177 164 214 186 192 237 219 213 210 207 211 201 198 196 181 159 138 135 118 117 137 108 117 152 175 240 291 115 206 275 277 263 219 244 278 341 291 217 152 162 178 195 146 143 202 184 180 201 223 233 202 185 181 173 166 163 165 171 176
246 244 242 241 241 239 234 230 231 233 221 207 205 206 207 208 206 204 202 200 201 200 199 197 195 193 190 183 179 186 202 219 178 62 19 209 207 204 201 202 192 191 191 174 156 146 145 141 159 157 136 138 182 199 296 333 163 185 264 307 297 218 230 277 340 322 182 171 192 181 145 151 177 204 136 207 228 254 303 206 155 162 165 160 161 171 179 182
246 245 244 242 242 240 237 232 229 231 229 214 203 204 206 208 206 203 201 199 198 198 197 195 194 191 182 170 169 209 232 225 224 265 45 184 193 191 187 188 187 189 185 177 167 156 149 154 170 152 152 175 161 181 305 359 75 160 241 289 309 235 252 287 328 2 34 182 157 106 143 192 194 174 149 228 241 263 321 127 137 145 154 163 173 180 185 188
246 244 244 244 242 241 238 234 231 228 232 226 208 202 205 207 206 203 201 198 195 195 194 193 192 185 177 166 160 216 220 221 224 226 192 172 181 186 184 183 188 189 181 181 175 163 161 172 182 175 157 157 162 176 179 182 168 126 275 291 302 285 292 314 317 24 17 231 125 134 198 302 230 181 248 240 229 210 95 127 143 147 162 178 182 185 188 192
249 244 242 244 242 241 240 234 232 228 229 230 216 204 202 205 206 202 199 197 194 192 190 191 187 177 173 166 165 217 227 224 223 225 221 186 184 188 191 192 190 185 176 175 177 170 170 167 161 160 115 113 174 166 159 190 170 106 343 299 287 281 296 327 292 308 360 334 152 169 203 290 309 327 259 257 207 134 114 137 160 162 176 185 187 192 191 195
250 247 241 241 241 240 239 234 230 228 226 228 223 209 202 203 204 200 198 196 192 189 188 186 180 174 173 173 188 214 228 227 227 225 219 197 191 194 199 197 189 181 172 166 182 181 169 155 144 127 102 136 163 159 209 203 136 75 22 311 289 293 292 287 281 280 305 69 156 148 170 299 344 291 236 258 144 130 133 153 177 183 189 190 190 194 194 201
250 248 243 239 241 239 237 235 229 227 226 225 225 214 201 200 202 198 195 194 192 189 186 182 178 176 175 184 207 212 219 223 228 223 216 212 206 208 207 196 187 182 173 164 186 186 165 158 143 102 160 155 150 174 219 192 100 77 73 332 297 325 292 259 242 277 183 163 168 126 106 302 276 234 241 266 128 118 124 163 188 198 201 199 196 196 201 208
249 247 244 239 239 239 236 234 229 225 224 222 225 220 202 197 200 197 193 192 191 188 184 181 179 176 176 200 213 207 215 213 210 210 207 210 206 202 200 190 184 185 183 178 181 180 163 160 142 97 146 142 172 195 153 135 99 94 95 135 290 326 293 259 210 87 137 162 153 134 226 266 243 239 248 225 145 120 129 184 196 204 206 204 203 204 210 209
249 246 244 239 236 237 235 232 229 225 223 220 222 224 207 195 195 195 193 190 189 187 183 179 175 174 184 208 197 208 217 204 194 188 186 188 177 174 182 180 180 183 184 179 173 170 168 165 127 91 151 134 186 196 53 20 63 101 133 159 208 253 271 286 247 131 148 207 105 122 215 253 250 251 259 232 175 152 174 201 201 207 211 206 208 209 216 212
248 245 242 239 233 233 234 231 228 224 223 219 218 225 214 199 194 193 191 188 185 184 178 173 172 165 188 239 198 209 209 193 187 184 183 177 160 157 173 175 175 170 169 170 167 164 168 171 127 121 206 356 116 151 113 3 28 118 173 206 190 195 261 304 257 160 168 262 86 127 206 263 265 263 273 246 192 180 195 205 205 211 215 213 214 214 219 222
245 242 240 238 232 231 231 229 227 223 221 219 218 223 217 202 194 191 189 184 180 179 171 169 173 164 162 212 170 186 192 189 187 182 183 180 168 161 164 167 162 150 145 151 166 166 166 169 155 178 159 68 114 138 149 217 237 185 174 218 209 183 246 311 274 203 176 132 79 170 210 266 269 264 308 294 190 194 210 215 212 213 219 217 216 219 220 226
244 238 236 235 231 229 228 227 226 222 220 218 217 220 215 200 190 188 187 181 176 174 171 170 168 166 189 167 156 179 183 179 183 178 175 181 177 163 155 153 151 144 125 117 155 165 180 194 187 192 130 144 156 141 168 204 211 223 127 222 239 192 211 251 255 243 163 146 210 204 220 245 255 265 310 325 180 189 218 225 219 217 223 222 220 225 225 224
243 236 233 232 230 226 225 224 223 222 219 214 213 215 212 198 188 185 178 172 169 167 171 168 157 162 232 190 181 183 177 172 175 174 169 175 176 163 156 153 147 139 116 94 145 156 188 232 184 188 166 164 162 167 187 196 188 187 173 192 237 229 218 231 246 212 163 165 207 193 225 251 262 271 266 244 165 188 220 233 235 230 228 229 226 227 228 227
245 238 231 229 228 224 223 221 220 220 215 211 211 211 209 197 188 183 170 161 163 167 166 162 165 184 210 184 176 154 168 170 167 167 163 161 161 154 147 141 136 137 138 135 183 176 153 113 198 200 194 188 189 193 192 175 167 176 181 179 194 216 232 230 243 248 177 163 209 199 215 245 251 259 253 233 156 192 226 249 249 240 232 229 231 231 231 229
248 240 231 228 225 222 220 217 218 216 210 205 201 203 209 195 182 184 168 160 175 188 157 164 175 174 94 153 150 132 154 164 158 160 161 157 148 135 111 109 112 132 162 157 171 175 154 180 210 204 196 196 192 184 181 199 177 169 178 190 201 208 236 237 231 289 217 167 225 213 217 247 247 255 261 257 144 232 237 240 238 237 230 224 228 233 233 231
249 240 231 226 221 220 217 214 215 212 207 199 192 197 207 193 188 169 158 163 187 192 156 171 173 149 92 150 148 135 133 142 120 139 157 154 143 136 135 127 130 172 174 143 137 133 165 200 212 203 193 190 178 148 149 248 251 211 198 203 220 213 231 249 228 310 331 173 252 240 218 255 257 258 267 239 220 251 236 227 233 230 225 226 228 234 237 238
249 239 229 221 217 217 214 211 212 208 204 195 193 209 206 202 199 162 153 160 182 200 174 173 167 71 115 149 152 147 133 125 129 146 157 152 150 156 163 147 153 172 160 133 127 140 191 213 204 194 177 162 166 151 159 221 248 245 221 193 222 223 251 286 283 325 3 171 274 320 203 256 264 260 263 235 221 244 236 226 229 221 221 229 227 233 237 242
242 233 224 217 212 212 211 209 208 205 198 192 195 209 211 216 172 155 149 131 166 223 181 170 159 79 125 139 157 154 147 155 158 173 169 158 164 169 151 160 167 160 163 173 169 169 198 215 195 183 159 157 177 175 169 204 239 237 214 189 218 203 177 278 297 326 20 80 212 148 235 268 272 273 269 241 224 245 250 239 236 222 219 227 228 230 227 230
229 223 218 211 207 207 208 205 204 203 196 193 199 204 208 204 158 150 133 54 151 4 185 173 162 134 143 139 157 158 149 158 156 170 177 165 151 151 156 163 161 164 186 184 178 184 203 208 168 160 161 169 181 191 190 201 228 235 219 197 200 186 196 232 273 320 349 351 106 93 336 292 267 270 267 255 242 259 257 249 252 242 229 237 246 242 227 225
217 214 211 204 202 201 201 200 199 199 194 195 203 202 202 189 160 149 122 79 153 10 205 181 174 174 155 145 155 156 132 150 165 165 175 168 147 143 163 156 157 184 189 172 174 195 220 221 156 157 173 175 183 201 201 197 211 241 229 198 192 203 214 216 167 93 21 289 293 89 290 281 287 275 253 262 310 276 257 237 247 247 238 238 246 245 236 232
207 206 203 199 197 194 194 196 193 193 192 199 202 198 198 186 168 154 119 89 174 171 181 175 175 174 158 149 153 140 137 180 177 163 167 168 159 145 150 152 164 186 175 159 168 200 205 198 163 171 181 178 195 213 205 190 190 237 226 189 192 206 199 175 160 148 193 249 289 97 204 256 305 283 247 273 308 278 272 260 251 248 243 234 233 240 239 237
201 200 197 193 191 186 186 186 187 189 190 198 195 191 191 182 168 151 106 217 196 168 161 161 175 167 158 166 155 142 161 165 139 166 174 167 162 148 154 166 149 161 154 139 190 218 164 154 170 183 181 188 209 215 201 180 176 235 222 172 177 186 187 184 176 190 216 233 315 39 163 235 275 257 256 322 308 282 281 270 260 250 240 235 234 238 237 232
197 195 192 189 185 184 185 182 181 187 191 186 182 179 176 167 160 143 150 209 179 133 149 148 153 155 146 140 145 141 182 145 137 186 187 169 163 143 165 179 165 154 153 162 188 213 160 172 186 183 185 205 208 194 172 165 184 237 197 151 163 169 175 181 174 197 230 166 261 258 153 207 261 268 296 345 274 274 276 263 257 250 240 237 239 242 240 236
195 192 189 184 181 183 188 186 180 186 188 181 173 168 159 152 153 158 232 212 140 120 153 143 145 150 135 125 137 133 183 149 147 163 167 177 173 95 165 177 153 148 167 187 190 187 192 194 182 174 192 206 194 177 168 171 197 224 146 107 83 96 102 132 160 160 109 211 230 217 182 211 264 273 284 311 255 257 265 261 253 249 245 240 244 248 246 241
193 189 186 179 175 181 186 187 186 185 181 173 166 160 149 141 150 188 208 192 118 157 172 154 166 159 147 146 156 186 173 145 123 128 145 182 122 58 106 122 111 141 175 206 200 203 293 252 153 169 201 189 166 160 173 177 172 129 108 80 56 52 62 73 111 105 140 236 240 219 197 210 267 266 240 225 224 223 239 261 261 259 269 258 249 249 246 242
191 186 180 175 174 178 179 184 187 180 169 163 159 153 148 148 168 190 198 164 107 173 171 152 162 159 154 154 159 173 167 123 137 146 154 172 134 94 119 116 106 138 169 207 212 280 10 59 162 223 208 133 140 162 22 115 153 126 101 107 93 14 33 47 6 73 193 238 260 253 195 173 240 253 241 235 237 229 228 247 258 261 277 276 264 256 247 243
185 180 176 175 176 177 179 182 178 172 161 157 154 149 158 176 191 184 172 159 159 180 165 150 156 159 155 156 159 164 153 134 157 157 160 169 170 167 164 170 166 153 183 199 183 20 8 217 248 304 259 143 141 171 27 34 164 151 122 136 144 283 110 193 248 204 222 245 268 264 178 198 240 249 260 259 255 251 234 227 244 251 265 278 281 277 264 252
179 174 172 175 176 178 184 180 172 166 158 155 157 162 169 184 200 152 126 160 168 159 161 156 159 159 155 159 166 159 141 148 166 163 166 169 166 178 182 175 168 165 184 175 153 165 209 286 277 194 249 186 160 179 189 162 181 168 152 157 165 158 169 205 233 264 249 258 264 256 207 246 276 258 245 248 250 252 241 226 235 238 247 264 279 290 294 290
173 170 170 175 177 180 184 177 167 162 157 157 168 177 176 189 185 119 132 167 143 148 162 160 157 156 157 161 159 151 138 158 171 165 166 165 162 182 189 183 183 169 112 148 166 176 185 242 224 180 213 187 177 192 169 137 156 189 164 144 164 171 177 203 211 203 224 256 275 261 207 202 208 234 236 238 254 266 256 243 244 243 246 259 281 289 284 285
168 168 169 171 176 182 180 171 165 161 158 162 178 186 188 184 141 131 148 150 141 151 157 154 149 149 156 152 145 153 141 153 172 165 167 172 175 182 181 189 190 167 128 166 190 178 187 222 257 195 187 156 169 207 136 123 154 214 143 135 196 189 151 157 188 185 178 198 248 223 227 212 202 274 274 252 259 267 258 256 255 253 254 254 267 269 257 261
162 164 166 168 175 179 173 166 163 162 162 170 180 197 199 166 140 148 146 147 154 150 145 148 149 150 155 137 146 163 125 132 166 163 172 182 184 186 186 191 186 177 169 169 153 169 183 215 311 14 67 136 152 170 144 138 175 178 136 189 224 162 114 125 207 225 103 199 246 202 245 289 308 286 288 290 279 268 256 249 240 246 254 244 244 247 242 243
158 159 160 166 175 176 169 163 162 163 168 181 186 195 187 158 147 145 147 156 159 153 149 154 162 161 156 148 164 169 141 133 169 171 171 180 190 193 192 194 186 189 191 167 148 207 160 126 319 100 113 166 156 138 98 37 144 143 184 202 195 99 104 118 171 350 84 221 268 247 223 274 264 254 300 322 287 268 257 242 242 258 255 232 238 238 237 240
154 150 150 166 171 170 167 163 162 163 174 187 184 178 168 167 158 151 154 156 156 160 159 157 165 165 161 160 168 170 159 156 176 177 169 180 212 199 189 194 191 190 192 159 149 219 145 120 317 10 130 268 34 121 150 317 138 159 196 183 139 176 209 137 157 191 191 224 275 306 262 251 204 215 296 292 254 252 256 244 235 250 237 225 238 238 239 248
144 142 148 167 166 165 166 164 161 163 180 187 180 173 162 157 157 160 157 150 153 163 164 162 165 164 168 168 164 170 174 170 170 174 175 184 216 204 186 190 189 185 187 161 164 193 137 136 267 303 176 328 23 133 189 214 221 73 130 178 153 176 187 177 166 170 181 213 245 297 298 254 215 203 224 247 246 240 246 241 222 228 225 220 229 229 231 234
141 141 143 162 164 165 164 164 164 174 182 185 176 166 153 148 155 164 160 154 158 168 171 168 165 164 169 168 163 168 176 170 169 177 185 180 190 216 192 186 170 171 167 125 143 166 119 133 178 285 350 154 177 218 196 188 180 152 157 187 194 51 151 175 181 133 145 185 195 249 271 256 235 200 202 228 243 235 224 223 226 230 227 227 230 227 228 225
146 140 150 162 164 162 159 162 183 177 172 182 175 163 156 153 151 161 165 163 164 176 175 169 171 170 166 164 164 168 166 162 171 179 188 184 188 214 197 181 161 155 149 127 148 172 156 138 149 144 149 178 215 270 206 180 181 175 180 187 179 138 112 162 235 213 116 174 177 187 254 260 235 200 202 217 233 238 217 202 226 243 235 235 237 226 225 226
150 158 159 161 162 159 156 167 186 170 182 184 168 148 146 144 144 158 166 168 169 166 141 167 171 164 163 168 166 164 161 160 175 182 191 196 194 204 189 161 147 154 159 149 157 166 119 101 113 136 204 204 257 302 182 195 164 154 199 193 171 170 154 173 219 219 121 228 160 132 261 268 248 204 209 222 238 264 228 193 223 255 248 240 246 238 231 235
154 151 149 159 162 161 159 173 170 176 194 167 147 148 146 144 152 158 163 170 174 156 140 159 159 153 164 168 159 159 160 161 177 181 176 185 193 204 171 148 143 156 161 149 154 160 134 115 104 43 308 304 320 337 37 33 71 186 235 194 166 193 175 162 196 181 174 211 163 151 259 264 282 289 239 245 271 299 274 219 225 256 265 260 270 283 97 97
141 104 139 161 165 165 164 175 170 175 172 143 150 161 131 134 158 157 161 170 173 158 154 161 161 162 165 159 158 166 165 161 180 179 147 161 182 179 161 154 153 164 175 177 171 168 172 146 127 124 81 13 333 324 304 258 200 201 219 170 166 159 113 116 150 125 204 216 170 194 245 242 277 316 295 252 278 277 262 240 225 244 272 308 344 37 94 120
133 116 136 162 169 171 176 175 166 163 161 157 168 166 130 128 164 163 161 166 171 166 163 165 164 159 153 151 155 168 168 151 163 167 106 131 159 162 162 161 166 175 177 154 144 137 146 155 150 153 160 186 204 213 218 203 186 203 122 127 155 135 133 159 125 118 236 224 166 204 238 246 294 322 306 252 267 270 262 250 234 244 276 347 44 97 118 134
142 143 155 152 175 180 179 173 168 163 160 156 164 178 155 144 164 171 162 160 170 162 150 150 155 143 146 155 151 165 174 127 111 148 128 136 153 299 177 170 172 175 151 131 137 131 110 150 177 179 190 202 199 190 152 124 137 200 182 143 152 164 172 156 122 204 224 159 204 231 218 214 272 290 249 240 230 237 252 254 263 274 280 18 98 124 144 152
148 160 167 157 168 175 166 165 170 167 163 157 158 178 167 154 159 171 170 174 166 147 124 133 154 148 156 161 153 167 175 138 111 152 152 145 117 26 149 176 174 162 136 134 151 134 101 187 197 196 209 209 176 163 157 147 176 195 184 173 177 183 180 165 199 224 200 132 240 235 179 186 239 240 227 231 224 236 252 251 259 264 250 164 127 146 164 166
160 164 173 160 147 165 164 160 164 168 171 164 157 169 169 162 161 167 174 172 158 154 135 139 166 164 164 165 160 166 170 153 145 160 154 147 133 110 125 209 198 162 140 149 179 143 140 207 202 195 216 219 121 164 173 169 186 184 181 191 189 182 181 190 216 222 195 186 234 205 147 188 220 225 230 228 217 232 241 232 225 189 136 139 160 172 180 194
140 113 155 133 135 163 159 154 159 167 175 172 161 171 171 166 166 170 168 156 166 172 159 159 172 169 166 169 164 163 170 170 174 177 169 163 157 147 151 172 236 186 151 159 193 167 170 198 184 184 205 213 191 196 178 167 162 159 187 196 189 187 195 206 222 223 211 219 226 101 103 234 226 221 233 229 216 223 241 246 156 133 153 172 175 185 200 212
155 151 148 113 119 159 157 156 161 166 177 184 177 175 173 171 172 172 169 166 171 176 170 170 176 174 170 172 170 174 181 180 179 178 169 165 166 165 170 174 172 173 163 165 178 206 204 189 155 158 188 224 252 211 182 169 168 176 194 192 187 198 208 218 226 223 221 234 230 62 336 283 256 240 235 217 202 201 248 248 177 172 193 181 179 204 214 219
155 153 148 136 135 152 156 160 164 164 175 190 184 174 175 179 176 168 170 190 179 179 182 177 174 172 170 174 179 184 185 182 181 178 171 171 173 166 168 175 157 152 159 165 159 139 170 176 116 132 183 233 226 153 137 90 101 185 214 201 197 203 211 221 225 214 217 227 227 258 272 247 229 254 250 198 157 183 224 228 197 204 206 181 194 220 222 223
106 83 109 126 138 154 160 161 167 172 179 185 179 172 176 179 174 164 160 256 196 183 178 167 163 161 169 183 189 186 181 179 176 171 165 165 159 136 118 133 150 153 152 148 131 107 134 139 117 151 186 235 45 128 126 89 81 245 233 209 204 209 216 222 229 223 220 213 205 232 241 198 176 216 222 228 233 225 237 228 198 209 212 201 215 225 226 229